星链-5120 (STARLINK-5120 )

导读

STARLINK-5120是美国SpaceX星链星座的卫星,于2022年10月5日发射入轨,归属美国航天企业SpaceX。它是星链低轨互联网星座组网的组成部分,承担为全球提供覆盖广泛、低延迟的宽带互联网接入服务任务,依托低轨部署,支持通信、导航等多元应用场景,推进星链星座全球覆盖组网进程。

Basic Information
目录编号:
53982
目录名称:
STARLINK-5120
国际标识:
2022-125U
轨道中心:
EARTH
卫星名称:
星链-5120
卫星全名:
星链-5120 (STARLINK-5120 )
卫星状态:
在轨 (已飞行1351 天)
发射日期:
2022-10-05 UTC
国别 :
美国 (US)
星等 :
--
Orbit Information
数据来源 国际轨道数据 AOE轨道数据
星历时间 2026-06-17T12:37:57+0800
4小时前
查看轨道信息
2026-06-12T04:00:00+0800
5天前
查看轨道信息
半长轴 6917.921km 6917.852km
偏心率 0.000141 0.0001621
轨道倾角 53.161° 53.158°
近地点辐角 87.984° 80.757°
升交点赤经 127.376° 151.468°
平近点角 272.131° 310.712°
近地点 538.808km 538.593km
远地点 540.76km 540.837km
周期 95.438分钟 95.437分钟
每日圈数 15.08827 15.088493
Detailed Information
固有亮度:
5
最大亮度:
2.5
卫星平台:
Starlink v1.5
覆盖范围:
全球
运营商:
太空探索技术公司
运营商所在国:
美国
制造商(研发单位):
太空探索技术公司
制造商所在国:
美国
使用方式:
暂无
Satellite Introduction
星链(Starlink)计划是由太空探索技术公司(SpaceX)提出的一个巨型低轨卫星互联网星座项目,计划在2019年至2024年间在太空搭建由约1.2万颗卫星组成的“星链”网络,其中1584颗将部署在地球上空550千米处的近地轨道,并从2020年开始工作。该卫星仍在工作。
2D Orbit Map
3D Orbit Map
Orbit Altitude Analysis Chart
Orbit Inclination Analysis Chart
Orbit Comprehensive Analysis Chart
View Comprehensive Chart